DW9210 Weather Reports


time (UTC)temp
F
wind
direction
speed
knots
gust
knots
rain 1hr
in
rain 24hr
in
rain mn
in
humidity
%
barometer
mb
20260502194003 55 298 2.6 6.1 0.00 0.00 0.00 55 1016.4
20260502193503 56 255 3.5 7.8 0.00 0.00 0.00 54 1016.4
20260502193003 56 254 2.6 7.8 0.00 0.00 0.00 50 1016.3
20260502192503 56 286 3.5 7.0 0.00 0.00 0.00 52 1016.4
20260502192003 57 272 4.3 8.7 0.00 0.00 0.00 54 1016.4
20260502191503 57 251 4.3 8.7 0.00 0.00 0.00 52 1016.5
20260502191003 56 259 3.5 7.0 0.00 0.00 0.00 51 1016.5
20260502190503 56 285 3.5 7.0 0.00 0.00 0.00 58 1016.6
20260502190003 55 301 3.5 5.2 0.00 0.00 0.00 58 1016.6
20260502185503 55 314 3.5 6.1 0.00 0.00 0.00 56 1016.6
20260502185003 55 313 3.5 7.0 0.00 0.00 0.00 58 1016.6
20260502184503 55 307 2.6 7.0 0.00 0.00 0.00 55 1016.7
20260502184003 55 304 2.6 6.1 0.00 0.00 0.00 54 1016.7
20260502183503 55 297 2.6 4.3 0.00 0.00 0.00 60 1016.8
20260502183024 55 300 2.6 6.1 0.00 0.00 0.00 54 1016.8
20260502182503 55 290 3.5 7.0 0.00 0.00 0.00 55 1016.8
20260502182003 55 295 3.5 7.0 0.00 0.00 0.00 55 1016.9
20260502181503 55 296 3.5 7.0 0.00 0.00 0.00 54 1016.9
20260502181003 55 288 3.5 7.0 0.00 0.00 0.00 58 1016.9
20260502180524 54 300 3.5 7.0 0.00 0.00 0.00 60 1017.0
20260502164003 54 327 2.6 5.2 0.00 0.00 0.00 55 1017.3
20260502163524 54 352 1.7 5.2 0.00 0.00 0.00 56 1017.3
20260502163003 54 327 1.7 4.3 0.00 0.00 0.00 56 1017.3
20260502162503 54 269 1.7 3.5 0.00 0.00 0.00 54 1017.3
20260502162003 53 200 0.9 2.6 0.00 0.00 0.00 55 1017.4
20260502161503 53 201 1.7 3.5 0.00 0.00 0.00 56 1017.4
20260502161003 53 208 1.7 3.5 0.00 0.00 0.00 57 1017.4
20260502160503 53 166 1.7 4.3 0.00 0.00 0.00 55 1017.5
20260502152003 53 74 0.9 3.5 0.00 0.00 0.00 60 1017.6
20260502151503 52 338 1.7 4.3 0.00 0.00 0.00 59 1017.6
20260502151024 52 31 1.7 4.3 0.00 0.00 0.00 59 1017.7
20260502150503 52 39 2.6 6.1 0.00 0.00 0.00 62 1017.7
20260502130503 46 54 3.5 7.8 0.00 0.00 0.00 77 1017.3
20260502123524 44 57 3.5 7.0 0.00 0.00 0.00 84 1017.0
20260502123024 43 71 2.6 7.0 0.00 0.00 0.00 86 1016.9
20260502122503 42 65 1.7 6.1 0.00 0.00 0.00 87 1016.9
20260502122003 42 54 1.7 6.1 0.00 0.00 0.00 87 1017.1
20260502121524 41 47 1.7 4.3 0.00 0.00 0.00 88 1017.2
20260502121003 41 34 1.7 4.3 0.00 0.00 0.00 89 1017.4
20260502120524 40 27 1.7 4.3 0.00 0.00 0.00 89 1017.4
20260502115503 40 30 2.6 4.3 0.00 0.00 0.00 90 1017.2
20260502115003 40 34 2.6 4.3 0.00 0.00 0.00 91 1017.1
20260502114003 39 27 1.7 3.5 0.00 0.00 0.00 92 1017.0
20260502113503 39 28 1.7 3.5 0.00 0.00 0.00 92 1016.8
20260502113003 38 26 1.7 3.5 0.00 0.00 0.00 93 1016.9
20260502112503 38 25 1.7 3.5 0.00 0.00 0.00 93 1016.9
20260502112003 38 26 1.7 3.5 0.00 0.00 0.00 94 1016.8
20260502111503 37 16 1.7 2.6 0.00 0.00 0.00 94 1016.7
20260502111003 37 4 1.7 2.6 0.00 0.00 0.00 94 1016.7
20260502110503 37 2 1.7 2.6 0.00 0.00 0.00 94 1016.7
20260502110003 37 1 0.9 2.6 0.00 0.00 0.00 94 1016.8
20260502105503 37 360 0.9 1.7 0.00 0.00 0.00 93 1016.6
20260502105024 37 1 0.9 2.6 0.00 0.00 0.00 94 1016.6
20260502104503 37 2 0.9 2.6 0.00 0.00 0.00 94 1016.6
20260502104003 37 5 1.7 2.6 0.00 0.00 0.00 94 1016.6
20260502103503 37 9 0.9 2.6 0.00 0.00 0.00 94 1016.5
20260502103003 37 14 0.9 2.6 0.00 0.00 0.00 94 1016.6
20260502102524 37 22 0.9 2.6 0.00 0.00 0.00 94 1016.6
20260502102003 37 33 0.9 2.6 0.00 0.00 0.00 94 1016.5
20260502101524 37 41 1.7 2.6 0.00 0.00 0.00 95 1016.4
20260502101003 37 44 1.7 2.6 0.00 0.00 0.00 95 1016.5
20260502100503 37 41 1.7 3.5 0.00 0.00 0.00 95 1016.5
20260502091503 35 345 0.9 1.7 0.00 0.00 0.00 95 1016.7
20260502091003 35 348 0.9 1.7 0.00 0.00 0.00 95 1016.6
20260502090503 35 353 0.9 1.7 0.00 0.00 0.00 95 1016.6
20260502071503 36 322 0.9 1.7 0.00 0.00 0.00 95 1016.4
20260502071003 36 320 0.0 1.7 0.00 0.00 0.00 95 1016.4
20260502070503 35 320 0.0 1.7 0.00 0.00 0.00 95 1016.5
20260502070003 35 328 0.9 2.6 0.00 0.00 0.00 95 1016.6
20260502065503 35 332 0.9 2.6 0.00 0.00 0.00 94 1016.6
20260502065003 36 0 0.0 0.0 0.00 0.00 0.00 95 1016.5
20260502064503 36 0 0.0 0.0 0.00 0.00 0.00 95 1016.5
20260502064003 36 0 0.0 0.0 0.00 0.00 0.00 95 1016.5
20260502063503 36 0 0.0 0.0 0.00 0.00 0.00 95 1016.5
20260502063024 35 0 0.0 0.0 0.00 0.00 0.00 95 1016.5
20260502062503 35 0 0.0 0.0 0.00 0.00 0.00 94 1016.6
20260502062024 35 0 0.0 0.0 0.00 0.00 0.00 94 1016.6
20260502061503 35 0 0.0 0.0 0.00 0.00 0.00 94 1016.7
20260502061003 35 0 0.0 0.0 0.00 0.00 0.00 93 1016.7
20260502060524 35 0 0.0 0.0 0.00 0.00 0.00 93 1016.8
20260502060003 36 0 0.0 0.0 0.00 0.00 0.00 94 1016.8
20260502055503 36 0 0.0 0.0 0.00 0.00 0.00 94 1016.8
20260502055003 36 0 0.0 0.0 0.00 0.00 0.00 93 1016.9
20260502054503 36 0 0.0 0.0 0.00 0.00 0.00 93 1016.8
20260502054003 36 0 0.0 0.0 0.00 0.00 0.00 93 1016.9
20260502053503 36 0 0.0 0.0 0.00 0.00 0.00 93 1016.9
20260502053003 36 0 0.0 0.0 0.00 0.00 0.00 93 1016.9
20260502052503 36 0 0.0 0.0 0.00 0.00 0.00 94 1017.0
20260502052024 37 0 0.0 0.0 0.00 0.00 0.00 93 1017.0
20260502051503 37 0 0.0 0.0 0.00 0.00 0.00 93 1017.1
20260502051024 37 0 0.0 0.0 0.00 0.00 0.00 93 1017.0
20260502050503 37 0 0.0 0.0 0.00 0.00 0.00 93 1017.0
20260502050003 37 0 0.0 0.0 0.00 0.00 0.00 93 1017.1
20260502045524 37 356 0.0 1.7 0.00 0.00 0.00 93 1016.9
20260502045003 37 356 0.9 1.7 0.00 0.00 0.00 93 1017.0
20260502044503 37 356 0.9 1.7 0.00 0.00 0.00 93 1017.0
20260502044003 37 356 0.0 1.7 0.00 0.00 0.00 93 1017.0
20260502043503 37 0 0.0 0.0 0.00 0.00 0.00 93 1017.0
20260502043024 37 0 0.0 0.0 0.00 0.00 0.00 92 1017.0
20260502042503 38 0 0.0 0.0 0.00 0.00 0.00 92 1017.0
20260502042003 38 0 0.0 0.0 0.00 0.00 0.00 92 1017.0
20260502041503 38 356 0.0 0.9 0.00 0.00 0.00 92 1017.0
20260502041003 38 356 0.0 0.9 0.00 0.00 0.00 92 1017.0
20260502040503 38 0 0.0 0.0 0.00 0.00 0.00 91 1017.0
20260502040003 39 0 0.0 0.0 0.00 0.00 0.00 91 1017.1
20260502035503 39 0 0.0 0.0 0.00 0.00 0.00 91 1017.1
20260502035024 39 0 0.0 0.0 0.00 0.00 0.00 91 1017.1
20260502034503 39 0 0.0 0.0 0.00 0.00 0.00 90 1017.2
20260502034003 40 0 0.0 0.0 0.00 0.00 0.00 91 1017.1
20260502033503 40 0 0.0 0.0 0.00 0.00 0.00 91 1017.1
20260502033003 40 0 0.0 0.0 0.00 0.00 0.00 90 1017.1
20260502032524 40 0 0.0 0.0 0.00 0.00 0.00 90 1017.0
20260502032003 40 356 0.0 0.9 0.00 0.00 0.00 90 1017.0
20260502031503 40 356 0.0 0.9 0.00 0.00 0.00 90 1017.0
20260502031003 41 356 0.0 1.7 0.00 0.00 0.00 89 1017.0
20260502030503 41 356 0.0 1.7 0.00 0.00 0.00 89 1016.9
20260502030003 41 0 0.0 0.0 0.00 0.00 0.00 89 1016.9
20260502025503 41 0 0.0 0.0 0.00 0.00 0.00 87 1016.9
20260502025003 42 0 0.0 0.0 0.00 0.00 0.00 87 1016.9
20260502024503 42 0 0.0 0.0 0.00 0.00 0.00 87 1017.0
20260502024003 42 0 0.0 0.0 0.00 0.00 0.00 86 1017.0
20260502023503 43 0 0.0 0.0 0.00 0.00 0.00 85 1017.0
20260502023003 43 0 0.0 0.0 0.00 0.00 0.00 85 1017.1
20260502022524 43 0 0.0 0.0 0.00 0.00 0.00 85 1017.1
20260502022024 43 0 0.0 0.0 0.00 0.00 0.00 84 1017.1
20260502021503 44 0 0.0 0.0 0.00 0.00 0.00 83 1017.0
20260502021024 44 0 0.0 0.0 0.00 0.00 0.00 82 1017.0
20260502020503 45 0 0.0 0.0 0.00 0.00 0.00 82 1016.9
20260502020003 45 0 0.0 0.0 0.00 0.00 0.00 81 1016.8
20260502015503 45 356 0.0 0.9 0.00 0.00 0.00 79 1016.7
20260502015003 46 357 0.0 0.9 0.00 0.00 0.00 79 1016.6
20260502014503 46 357 0.9 1.7 0.00 0.00 0.00 77 1016.4
20260502014003 47 360 0.9 1.7 0.00 0.00 0.00 76 1016.3
20260502013503 47 22 0.0 0.9 0.00 0.00 0.00 75 1016.2
20260502013003 48 27 0.0 0.9 0.00 0.00 0.00 74 1016.1
20260502012503 48 27 0.9 1.7 0.00 0.00 0.00 72 1015.9
20260502012024 48 25 0.9 1.7 0.00 0.00 0.00 67 1015.7
20260502011503 48 29 0.9 1.7 0.00 0.00 0.00 67 1015.6
20260502011003 49 31 0.9 2.6 0.00 0.00 0.00 66 1015.5
20260502010503 49 19 1.7 2.6 0.00 0.00 0.00 66 1015.4
20260502010024 49 354 1.7 3.5 0.00 0.00 0.00 66 1015.4
20260502005503 49 348 1.7 5.2 0.00 0.00 0.00 66 1015.4
20260502005003 50 347 2.6 5.2 0.00 0.00 0.00 66 1015.4
20260502004503 50 333 2.6 6.1 0.00 0.00 0.00 65 1015.3
20260502004003 50 333 3.5 7.8 0.00 0.00 0.00 64 1015.3
20260502003503 50 342 3.5 7.8 0.00 0.00 0.00 64 1015.1
20260502003003 50 346 2.6 6.1 0.00 0.00 0.00 66 1015.1
20260502002503 51 346 1.7 5.2 0.00 0.00 0.00 65 1014.8
20260502002024 51 333 1.7 4.3 0.00 0.00 0.00 65 1014.9
20260502001503 51 311 1.7 4.3 0.00 0.00 0.00 64 1014.8
20260502001003 52 300 1.7 4.3 0.00 0.00 0.00 64 1014.7
20260502000503 52 299 2.6 4.3 0.00 0.00 0.00 62 1014.5
20260502000003 52 299 2.6 4.3 0.00 0.00 0.00 63 1014.3
20260501235503 53 305 3.5 6.1 0.00 0.00 0.00 61 1014.4
20260501235003 53 314 2.6 6.1 0.00 0.00 0.00 62 1014.1
20260501234503 53 323 2.6 5.2 0.00 0.00 0.00 62 1014.1
20260501234003 54 323 2.6 5.2 0.00 0.00 0.00 61 1014.0
20260501233524 54 312 2.6 5.2 0.00 0.00 0.00 61 1014.1
20260501233024 54 302 3.5 6.1 0.00 0.00 0.00 62 1014.2
20260501232503 55 302 4.3 7.0 0.00 0.00 0.00 60 1014.1
20260501232024 55 304 4.3 7.8 0.00 0.00 0.00 59 1014.1
20260501231524 55 307 4.3 7.8 0.00 0.00 0.00 59 1014.0
20260501231003 56 317 4.3 8.7 0.00 0.00 0.00 59 1014.0
20260501230503 56 323 4.3 9.6 0.00 0.00 0.00 59 1013.9
20260501230003 56 334 5.2 9.6 0.00 0.00 0.00 60 1013.9
20260501225503 55 336 4.3 8.7 0.00 0.00 0.00 59 1014.0
20260501225003 56 314 4.3 8.7 0.00 0.00 0.00 61 1014.0
20260501224503 56 317 4.3 8.7 0.00 0.00 0.00 59 1014.0
20260501224003 56 327 4.3 7.8 0.00 0.00 0.00 60 1013.9
20260501223503 56 340 3.5 7.8 0.00 0.00 0.00 60 1013.9
20260501223003 56 344 4.3 9.6 0.00 0.00 0.00 59 1013.9
20260501222503 56 332 4.3 9.6 0.00 0.00 0.00 58 1013.9
20260501222003 56 323 4.3 11.3 0.00 0.00 0.00 60 1013.9
20260501221503 56 323 6.1 11.3 0.00 0.00 0.00 59 1013.9
20260501221003 56 315 7.0 11.3 0.00 0.00 0.00 57 1013.9
20260501220503 57 307 5.2 11.3 0.00 0.00 0.00 58 1013.8
20260501220003 58 308 4.3 11.3 0.00 0.00 0.00 58 1013.8
20260501215503 58 310 5.2 9.6 0.00 0.00 0.00 60 1013.7
20260501215003 57 310 5.2 11.3 0.00 0.00 0.00 63 1013.6
20260501214503 57 320 5.2 11.3 0.00 0.00 0.00 60 1013.8
20260501214003 57 325 5.2 11.3 0.00 0.00 0.00 57 1013.7
20260501213503 57 309 5.2 11.3 0.00 0.00 0.00 58 1013.7
20260501213003 58 296 3.5 9.6 0.00 0.00 0.00 60 1013.7
20260501212524 57 291 3.5 7.8 0.00 0.00 0.00 61 1013.7
20260501212003 57 288 5.2 9.6 0.00 0.00 0.00 62 1013.6
20260501211503 57 294 5.2 9.6 0.00 0.00 0.00 60 1013.6
20260501211003 57 299 5.2 11.3 0.00 0.00 0.00 60 1013.6
20260501210503 57 294 5.2 11.3 0.00 0.00 0.00 62 1013.7
20260501210003 57 297 4.3 8.7 0.00 0.00 0.00 64 1013.7
20260501205503 57 297 6.1 13.9 0.00 0.00 0.00 60 1013.7
20260501205003 58 296 7.0 13.9 0.00 0.00 0.00 61 1013.6
20260501204503 59 280 7.0 13.0 0.00 0.00 0.00 56 1013.4
20260501204003 60 265 6.1 13.0 0.00 0.00 0.00 54 1013.4
20260501203503 60 277 4.3 9.6 0.00 0.00 0.00 56 1013.4
20260501203024 60 288 4.3 9.6 0.00 0.00 0.00 63 1013.4
20260501202503 59 286 5.2 11.3 0.00 0.00 0.00 60 1013.6
20260501202003 59 285 6.1 11.3 0.00 0.00 0.00 60 1013.5
20260501201503 59 285 7.0 13.9 0.00 0.00 0.00 58 1013.5
20260501201003 59 271 7.0 18.2 0.00 0.00 0.00 58 1013.6
20260501200503 59 264 6.1 18.2 0.00 0.00 0.00 51 1013.5
20260501200024 60 267 5.2 9.6 0.00 0.00 0.00 54 1013.5
20260501195503 60 269 5.2 9.6 0.00 0.00 0.00 54 1013.4
20260501195003 59 269 6.1 9.6 0.00 0.00 0.00 58 1013.4
20260501194503 59 268 5.2 8.7 0.00 0.00 0.00 57 1013.4